Tracking 27428 objects as of 31-May-2023
HD Live streaming from Space Station
objects crossing your sky now

STARLINK-4433

Track STARLINK-4433 now!
10-day predictions
STARLINK-4433 is classified as:


NORAD ID: 53478
Int'l Code: 2022-099P
Perigee: 567.7 km
Apogee: 569.2 km
Inclination: 97.7 °
Period: 95.9 minutes
Semi major axis: 6939 km
RCS: Unknown
Launch date: August 12, 2022
Source: United States (US)
Launch site: AIR FORCE WESTERN TEST RANGE (AFWTR)
Your satellite tracking list
Your tracking list is empty




NASA's NSSDC Master Catalog

Two Line Element Set (TLE):
1 53478U 22099P   23151.12490205 -.00033572  00000-0 -25841-2 0  9998
2 53478  97.6546 272.4643 0001052 112.8387 247.2948 15.01809168 44151
Source of the keplerian elements: AFSPC